TimeEST,TemperatureF,Dew PointF,Humidity,Sea Level PressureIn,VisibilityMPH,Wind Direction,Wind SpeedMPH,Gust SpeedMPH,PrecipitationIn,Events,Conditions,WindDirDegrees,DateUTC
12:15 AM,-9999,-9999,N/A,30.44,4.0,Calm,Calm,-,N/A,,Haze,0,2012-11-12 05:15:00
12:35 AM,-9999,-9999,N/A,30.44,5.0,Calm,Calm,-,N/A,,Haze,0,2012-11-12 05:35:00
12:55 AM,-9999,-9999,N/A,30.43,7.0,Calm,Calm,-,N/A,,Clear,0,2012-11-12 05:55:00
1:15 AM,-9999,-9999,N/A,30.43,4.0,Calm,Calm,-,N/A,,Haze,0,2012-11-12 06:15:00
1:55 AM,-9999,-9999,N/A,30.43,1.2,Calm,Calm,-,N/A,,Mist,0,2012-11-12 06:55:00
2:15 AM,-9999,-9999,N/A,30.42,1.8,Calm,Calm,-,N/A,,Mist,0,2012-11-12 07:15:00
2:35 AM,-9999,-9999,N/A,30.42,3.0,Calm,Calm,-,N/A,,Clear,0,2012-11-12 07:35:00
2:55 AM,-9999,-9999,N/A,30.42,4.0,Calm,Calm,-,N/A,,Haze,0,2012-11-12 07:55:00
3:15 AM,-9999,-9999,N/A,30.42,7.0,Calm,Calm,-,N/A,,Clear,0,2012-11-12 08:15:00
3:35 AM,-9999,-9999,N/A,30.41,1.0,Calm,Calm,-,N/A,,Mist,0,2012-11-12 08:35:00
3:55 AM,-9999,-9999,N/A,30.41,0.5,Calm,Calm,-,N/A,Fog,Fog,0,2012-11-12 08:55:00
4:15 AM,-9999,-9999,N/A,30.41,2.0,Calm,Calm,-,N/A,,Clear,0,2012-11-12 09:15:00
4:35 AM,-9999,-9999,N/A,30.41,2.5,Calm,Calm,-,N/A,,Clear,0,2012-11-12 09:35:00
4:55 AM,-9999,-9999,N/A,30.41,1.2,Calm,Calm,-,N/A,,Mostly Cloudy,0,2012-11-12 09:55:00
5:15 AM,-9999,-9999,N/A,30.41,2.5,Calm,Calm,-,N/A,,Scattered Clouds,0,2012-11-12 10:15:00
5:35 AM,-9999,-9999,N/A,30.40,3.0,SE,3.5,-,N/A,,Clear,130,2012-11-12 10:35:00
5:55 AM,-9999,-9999,N/A,30.40,4.0,Calm,Calm,-,N/A,,Haze,0,2012-11-12 10:55:00
6:15 AM,-9999,-9999,N/A,30.40,3.0,Calm,Calm,-,N/A,,Clear,0,2012-11-12 11:15:00
6:35 AM,-9999,-9999,N/A,30.40,4.0,Calm,Calm,-,N/A,,Haze,0,2012-11-12 11:35:00
6:55 AM,-9999,-9999,N/A,30.40,3.0,Calm,Calm,-,N/A,,Clear,0,2012-11-12 11:55:00
7:15 AM,-9999,-9999,N/A,30.40,4.0,SE,3.5,-,N/A,,Haze,130,2012-11-12 12:15:00
7:35 AM,-9999,-9999,N/A,30.40,4.0,Calm,Calm,-,N/A,,Haze,0,2012-11-12 12:35:00
7:55 AM,-9999,-9999,N/A,30.40,4.0,SE,3.5,-,N/A,,Haze,130,2012-11-12 12:55:00
8:15 AM,-9999,-9999,N/A,30.40,5.0,SE,3.5,-,N/A,,Haze,130,2012-11-12 13:15:00
8:35 AM,-9999,-9999,N/A,30.40,5.0,SE,3.5,-,N/A,,Haze,140,2012-11-12 13:35:00
8:55 AM,-9999,-9999,N/A,30.40,7.0,Calm,Calm,-,N/A,,Clear,0,2012-11-12 13:55:00
9:15 AM,-9999,-9999,N/A,30.39,10.0,SE,5.8,-,N/A,,Clear,140,2012-11-12 14:15:00
9:35 AM,62.6,62.6,100,30.39,10.0,SSE,4.6,-,N/A,,Clear,150,2012-11-12 14:35:00
9:55 AM,64.4,64.4,100,30.39,10.0,SE,4.6,-,N/A,,Clear,130,2012-11-12 14:55:00
10:15 AM,68.0,64.4,88,30.38,10.0,SSE,6.9,-,N/A,,Clear,160,2012-11-12 15:15:00
10:55 AM,71.6,57.2,60,30.37,10.0,SSE,9.2,-,N/A,,Clear,160,2012-11-12 15:55:00
11:15 AM,69.8,57.2,64,30.36,10.0,South,12.7,-,N/A,,Clear,170,2012-11-12 16:15:00
11:35 AM,71.6,57.2,60,30.35,10.0,South,9.2,-,N/A,,Clear,180,2012-11-12 16:35:00
11:55 AM,71.6,57.2,60,30.34,10.0,SSE,8.1,-,N/A,,Clear,150,2012-11-12 16:55:00
12:15 PM,73.4,57.2,57,30.34,10.0,SSE,9.2,16.1,N/A,,Scattered Clouds,150,2012-11-12 17:15:00
12:35 PM,73.4,55.4,53,30.33,10.0,SSE,9.2,-,N/A,,Mostly Cloudy,160,2012-11-12 17:35:00
12:55 PM,73.4,55.4,53,30.32,10.0,SSE,5.8,-,N/A,,Mostly Cloudy,160,2012-11-12 17:55:00
1:15 PM,73.4,55.4,53,30.30,10.0,South,8.1,-,N/A,,Mostly Cloudy,170,2012-11-12 18:15:00
1:35 PM,73.4,55.4,53,30.30,10.0,South,10.4,-,N/A,,Scattered Clouds,180,2012-11-12 18:35:00
1:55 PM,71.6,55.4,57,30.29,10.0,South,8.1,-,N/A,,Scattered Clouds,170,2012-11-12 18:55:00
2:15 PM,73.4,55.4,53,30.28,10.0,South,6.9,-,N/A,,Scattered Clouds,170,2012-11-12 19:15:00
2:35 PM,73.4,55.4,53,30.27,10.0,SSE,9.2,17.3,N/A,,Scattered Clouds,160,2012-11-12 19:35:00
2:55 PM,71.6,55.4,57,30.26,10.0,SSE,12.7,17.3,N/A,,Mostly Cloudy,160,2012-11-12 19:55:00
3:15 PM,71.6,57.2,60,30.26,10.0,South,8.1,-,N/A,,Scattered Clouds,170,2012-11-12 20:15:00
3:35 PM,71.6,55.4,57,30.25,10.0,South,8.1,-,N/A,,Clear,180,2012-11-12 20:35:00
3:55 PM,71.6,57.2,60,30.25,10.0,South,6.9,-,N/A,,Clear,180,2012-11-12 20:55:00
4:15 PM,69.8,57.2,64,30.25,10.0,South,6.9,-,N/A,,Clear,170,2012-11-12 21:15:00
4:35 PM,69.8,57.2,64,30.25,10.0,SSE,5.8,-,N/A,,Clear,160,2012-11-12 21:35:00
4:55 PM,69.8,57.2,64,30.24,10.0,SSE,9.2,-,N/A,,Clear,160,2012-11-12 21:55:00
5:35 PM,68.0,59.0,73,30.24,10.0,SSE,5.8,-,N/A,,Clear,160,2012-11-12 22:35:00
5:55 PM,64.4,59.0,83,30.24,10.0,SSE,3.5,-,N/A,,Clear,160,2012-11-12 22:55:00
6:15 PM,62.6,60.8,94,30.24,10.0,SSE,3.5,-,N/A,,Clear,160,2012-11-12 23:15:00
6:35 PM,62.6,62.6,100,30.24,10.0,Calm,Calm,-,N/A,,Clear,0,2012-11-12 23:35:00
6:55 PM,-9999,-9999,N/A,30.24,10.0,Calm,Calm,-,N/A,,Clear,0,2012-11-12 23:55:00
7:15 PM,-9999,-9999,N/A,30.24,10.0,Calm,Calm,-,N/A,,Clear,0,2012-11-13 00:15:00
7:35 PM,-9999,-9999,N/A,30.24,10.0,SE,4.6,-,N/A,,Clear,130,2012-11-13 00:35:00
7:55 PM,-9999,-9999,N/A,30.23,10.0,SSE,3.5,-,N/A,,Clear,150,2012-11-13 00:55:00
8:15 PM,-9999,-9999,N/A,30.23,10.0,SSE,8.1,-,N/A,,Clear,160,2012-11-13 01:15:00
8:35 PM,-9999,-9999,N/A,30.23,10.0,SSE,5.8,-,N/A,,Mostly Cloudy,160,2012-11-13 01:35:00
8:55 PM,-9999,-9999,N/A,30.23,10.0,SSE,6.9,-,N/A,,Mostly Cloudy,160,2012-11-13 01:55:00
9:15 PM,-9999,-9999,N/A,30.23,10.0,SSE,5.8,-,N/A,,Scattered Clouds,160,2012-11-13 02:15:00
9:35 PM,-9999,-9999,N/A,30.21,10.0,SSE,6.9,-,N/A,,Clear,150,2012-11-13 02:35:00
9:55 PM,-9999,-9999,N/A,30.22,10.0,SSE,4.6,-,N/A,,Clear,160,2012-11-13 02:55:00
10:15 PM,-9999,-9999,N/A,30.22,10.0,South,4.6,-,N/A,,Clear,180,2012-11-13 03:15:00
10:35 PM,-9999,-9999,N/A,30.22,10.0,SSE,5.8,-,N/A,,Scattered Clouds,150,2012-11-13 03:35:00
10:55 PM,-9999,-9999,N/A,30.21,10.0,SSE,6.9,-,N/A,,Overcast,160,2012-11-13 03:55:00
11:15 PM,-9999,-9999,N/A,30.21,10.0,South,6.9,-,N/A,,Scattered Clouds,170,2012-11-13 04:15:00
11:35 PM,-9999,-9999,N/A,30.21,10.0,South,6.9,-,N/A,,Clear,170,2012-11-13 04:35:00
11:55 PM,-9999,-9999,N/A,30.21,10.0,South,6.9,-,N/A,,Clear,180,2012-11-13 04:55:00